| time (UTC) | temp C | wind direction | speed KPH | gust KPH | rain 1hr cm | rain 24hr cm | rain mn cm | humidity % | barometer mb |
| 20260505035630 | 7 | 277 | 1.6 | 3.2 | 0.00 | 0.00 | 0.00 | 56 | 1010.9 |
| 20260505034634 | 7 | 277 | 1.6 | 3.2 | 0.00 | 0.00 | 0.00 | 55 | 1010.8 |
| 20260505033633 | 7 | 277 | 1.6 | 3.2 | 0.00 | 0.00 | 0.00 | 53 | 1010.7 |
| 20260505032620 | 7 | 277 | 1.6 | 4.8 | 0.00 | 0.00 | 0.00 | 53 | 1010.7 |
| 20260505031624 | 8 | 277 | 0.0 | 1.6 | 0.00 | 0.00 | 0.00 | 50 | 1010.5 |
| 20260505030626 | 8 | 277 | 0.0 | 0.0 | 0.00 | 0.00 | 0.00 | 48 | 1010.3 |
| 20260505025627 | 9 | 277 | 0.0 | 0.0 | 0.00 | 0.00 | 0.00 | 45 | 1010.3 |
| 20260505024630 | 10 | 277 | 0.0 | 1.6 | 0.00 | 0.00 | 0.00 | 42 | 1010.1 |
| 20260505023653 | 10 | 277 | 0.0 | 1.6 | 0.00 | 0.00 | 0.00 | 42 | 1010.1 |
| 20260505022656 | 11 | 277 | 0.0 | 3.2 | 0.00 | 0.00 | 0.00 | 41 | 1010.0 |
| 20260505021638 | 11 | 277 | 1.6 | 1.6 | 0.00 | 0.00 | 0.00 | 39 | 1009.9 |
| 20260505020622 | 11 | 277 | 0.0 | 6.4 | 0.00 | 0.00 | 0.00 | 39 | 1009.8 |
| 20260505015643 | 12 | 276 | 4.8 | 11.3 | 0.00 | 0.00 | 0.00 | 36 | 1009.8 |
| 20260505014624 | 13 | 261 | 3.2 | 9.7 | 0.00 | 0.00 | 0.00 | 35 | 1009.7 |
| 20260505013631 | 13 | 261 | 6.4 | 11.3 | 0.00 | 0.00 | 0.00 | 33 | 1009.7 |
| 20260505012633 | 12 | 251 | 3.2 | 8.0 | 0.00 | 0.00 | 0.00 | 39 | 1009.8 |
| 20260505011616 | 12 | 248 | 6.4 | 11.3 | 0.00 | 0.00 | 0.00 | 42 | 1009.8 |
| 20260505010625 | 11 | 245 | 8.0 | 12.9 | 0.00 | 0.00 | 0.00 | 43 | 1009.9 |
| 20260505005626 | 10 | 271 | 6.4 | 11.3 | 0.00 | 0.00 | 0.00 | 45 | 1010.0 |
| 20260505004633 | 10 | 265 | 8.0 | 17.7 | 0.00 | 0.00 | 0.00 | 45 | 1010.2 |
| 20260505003617 | 11 | 279 | 11.3 | 17.7 | 0.00 | 0.00 | 0.00 | 44 | 1010.3 |
| 20260505002622 | 11 | 286 | 9.7 | 19.3 | 0.00 | 0.00 | 0.00 | 43 | 1010.4 |
| 20260505001629 | 13 | 250 | 6.4 | 40.2 | 0.00 | 0.00 | 0.00 | 39 | 1010.4 |
| 20260505000620 | 15 | 295 | 14.5 | 22.5 | 0.00 | 0.00 | 0.00 | 33 | 1010.0 |
| 20260504235620 | 15 | 279 | 12.9 | 22.5 | 0.00 | 0.00 | 0.00 | 32 | 1010.0 |
| 20260504234622 | 16 | 296 | 11.3 | 20.9 | 0.00 | 0.00 | 0.00 | 32 | 1009.8 |
| 20260504233627 | 16 | 329 | 12.9 | 20.9 | 0.00 | 0.00 | 0.00 | 29 | 1009.8 |
| 20260504232655 | 16 | 275 | 14.5 | 22.5 | 0.00 | 0.00 | 0.00 | 26 | 1009.8 |
| 20260504231617 | 15 | 244 | 8.0 | 17.7 | 0.00 | 0.00 | 0.00 | 24 | 1009.8 |
| 20260504230618 | 16 | 239 | 6.4 | 22.5 | 0.00 | 0.00 | 0.00 | 22 | 1009.8 |
| 20260504225622 | 16 | 262 | 14.5 | 25.7 | 0.00 | 0.00 | 0.00 | 23 | 1009.7 |
| 20260504224630 | 16 | 294 | 3.2 | 16.1 | 0.00 | 0.00 | 0.00 | 23 | 1009.9 |
| 20260504223634 | 16 | 284 | 11.3 | 17.7 | 0.00 | 0.00 | 0.00 | 22 | 1009.9 |
| 20260504222617 | 16 | 267 | 4.8 | 16.1 | 0.00 | 0.00 | 0.00 | 22 | 1010.0 |
| 20260504221618 | 17 | 262 | 11.3 | 17.7 | 0.00 | 0.00 | 0.00 | 22 | 1010.1 |
| 20260504220624 | 17 | 275 | 4.8 | 12.9 | 0.00 | 0.00 | 0.00 | 20 | 1010.2 |
| 20260504215626 | 17 | 132 | 1.6 | 4.8 | 0.00 | 0.00 | 0.00 | 21 | 1010.3 |
| 20260504214630 | 17 | 296 | 6.4 | 20.9 | 0.00 | 0.00 | 0.00 | 24 | 1010.6 |
| 20260504213632 | 16 | 257 | 4.8 | 27.4 | 0.00 | 0.00 | 0.00 | 24 | 1010.6 |
| 20260504212636 | 16 | 288 | 12.9 | 19.3 | 0.00 | 0.00 | 0.00 | 26 | 1010.8 |
| 20260504211623 | 16 | 290 | 12.9 | 20.9 | 0.00 | 0.00 | 0.00 | 25 | 1010.9 |
| 20260504210625 | 15 | 309 | 6.4 | 19.3 | 0.00 | 0.00 | 0.00 | 25 | 1011.0 |
| 20260504205627 | 14 | 275 | 9.7 | 16.1 | 0.00 | 0.00 | 0.00 | 27 | 1011.1 |
| 20260504204630 | 14 | 290 | 4.8 | 11.3 | 0.00 | 0.00 | 0.00 | 26 | 1011.1 |
| 20260504203639 | 15 | 276 | 8.0 | 14.5 | 0.00 | 0.00 | 0.00 | 24 | 1011.2 |
| 20260504202643 | 15 | 271 | 8.0 | 14.5 | 0.00 | 0.00 | 0.00 | 24 | 1011.2 |
| 20260504201625 | 16 | 290 | 8.0 | 19.3 | 0.00 | 0.00 | 0.00 | 24 | 1011.3 |
| 20260504200627 | 16 | 277 | 8.0 | 16.1 | 0.00 | 0.00 | 0.00 | 26 | 1011.5 |
| 20260504195633 | 16 | 246 | 3.2 | 16.1 | 0.00 | 0.00 | 0.00 | 29 | 1011.6 |
| 20260504194617 | 14 | 273 | 6.4 | 14.5 | 0.00 | 0.00 | 0.00 | 30 | 1011.6 |
| 20260504193619 | 13 | 264 | 3.2 | 14.5 | 0.00 | 0.00 | 0.00 | 29 | 1011.7 |
| 20260504192642 | 13 | 237 | 4.8 | 14.5 | 0.00 | 0.00 | 0.00 | 30 | 1011.8 |
| 20260504191626 | 12 | 345 | 1.6 | 6.4 | 0.00 | 0.00 | 0.00 | 31 | 1011.9 |
| 20260504190630 | 12 | 286 | 8.0 | 16.1 | 0.00 | 0.00 | 0.00 | 30 | 1012.1 |
| 20260504185617 | 13 | 254 | 6.4 | 14.5 | 0.00 | 0.00 | 0.00 | 29 | 1012.1 |
| 20260504184618 | 13 | 280 | 6.4 | 17.7 | 0.00 | 0.00 | 0.00 | 30 | 1012.2 |
| 20260504183622 | 13 | 270 | 8.0 | 19.3 | 0.00 | 0.00 | 0.00 | 31 | 1012.2 |
| 20260504182628 | 12 | 295 | 1.6 | 11.3 | 0.00 | 0.00 | 0.00 | 33 | 1012.4 |
| 20260504181618 | 12 | 263 | 3.2 | 12.9 | 0.00 | 0.00 | 0.00 | 31 | 1012.4 |
| 20260504180651 | 13 | 273 | 8.0 | 14.5 | 0.00 | 0.00 | 0.00 | 30 | 1012.6 |
| 20260504175633 | 14 | 283 | 9.7 | 19.3 | 0.00 | 0.00 | 0.00 | 29 | 1012.5 |
| 20260504174634 | 13 | 290 | 4.8 | 9.7 | 0.00 | 0.00 | 0.00 | 32 | 1012.6 |
| 20260504173619 | 14 | 253 | 12.9 | 20.9 | 0.00 | 0.00 | 0.00 | 30 | 1012.6 |
| 20260504172622 | 14 | 258 | 6.4 | 16.1 | 0.00 | 0.00 | 0.00 | 32 | 1012.6 |
| 20260504171631 | 13 | 265 | 3.2 | 17.7 | 0.00 | 0.00 | 0.00 | 33 | 1012.6 |
| 20260504170636 | 13 | 236 | 11.3 | 20.9 | 0.00 | 0.00 | 0.00 | 33 | 1012.7 |
| 20260504150624 | 10 | 290 | 4.8 | 12.9 | 0.00 | 0.00 | 0.00 | 39 | 1012.9 |
| 20260504140630 | 3 | 287 | 1.6 | 4.8 | 0.00 | 0.00 | 0.00 | 63 | 1013.2 |